Starlink 3705

operational
NORAD ID: 52103 Int'l Des: 2022-029 Owner: SPXS Country: US Constellation: starlink
LEOCIRCULAR

About Starlink 3705

Description loading...

Live Position

Loading 3D Globe...

Upcoming Passes

Altitude History

Altitude vs Time

uPlot chart will show altitude changes over time

Two-Line Element Set

1 52103U 22029R 25304.27054691 .00003240 00000-0 22150-3 0 9996
2 52103 53.2158 300.1045 0001406 86.0589 274.0564 15.08846114201242
Epoch: Oct 31, 2025 • Age: 34 hours

Current Status

Altitude 543.3 km
Velocity 7.60 km/s
Sub-Earth Point 43.96°N, 140.61°E
Launch Date Mar 19, 2022
Age 3.6 years
Type internet

Technical Details

Classification Payload
Mass 297.00 kg
Dry Mass 275.00 kg
Total Mass 297.00 kg
Length 0.20 m
Diameter 2.80 m
Span 9.00 m
Shape Box + pan
Manufacturer SPXS
Bus Type Starlink
Phase Status In Orbit
Owner/State SPXS/US

Large Constellations

Loading constellations...